| time (UTC) | temp F | wind direction | speed MPH | gust MPH | rain 1hr in | rain 24hr in | rain mn in | humidity % | barometer mb |
| 20260906120528 | 59 | 52 | 2.0 | 2.0 | 0.00 | 0.00 | 0.00 | 99 | 1016.7 |
| 20260906120025 | 59 | 72 | 2.0 | 2.0 | 0.00 | 0.00 | 0.00 | 99 | 1016.6 |
| 20260906115525 | 59 | 46 | 2.0 | 2.0 | 0.00 | 0.00 | 0.00 | 99 | 1016.7 |
| 20260906115020 | 59 | 48 | 1.0 | 2.0 | 0.00 | 0.00 | 0.00 | 99 | 1016.6 |
| 20260906114514 | 59 | 58 | 1.0 | 2.0 | 0.00 | 0.00 | 0.00 | 99 | 1016.5 |
| 20260906114010 | 60 | 48 | 0.0 | 0.0 | 0.00 | 0.00 | 0.00 | 99 | 1016.6 |
| 20260906113509 | 60 | 291 | 0.0 | 0.0 | 0.00 | 0.00 | 0.00 | 99 | 1016.3 |
| 20260906113004 | 59 | 288 | 0.0 | 0.0 | 0.00 | 0.00 | 0.00 | 99 | 1016.5 |
| 20260906112458 | 58 | 282 | 0.0 | 0.0 | 0.00 | 0.00 | 0.00 | 99 | 1016.3 |
| 20260906111955 | 58 | 280 | 0.0 | 0.0 | 0.00 | 0.00 | 0.00 | 99 | 1016.6 |
| 20260906111449 | 58 | 295 | 0.0 | 0.0 | 0.00 | 0.00 | 0.00 | 99 | 1016.5 |
| 20260906110944 | 58 | 228 | 0.0 | 0.0 | 0.00 | 0.00 | 0.00 | 99 | 1016.2 |
| 20260906110439 | 58 | 253 | 0.0 | 0.0 | 0.00 | 0.00 | 0.00 | 99 | 1016.2 |
| 20260906105938 | 58 | 257 | 0.0 | 0.0 | 0.00 | 0.00 | 0.00 | 99 | 1016.1 |
| 20260906105434 | 58 | 268 | 0.0 | 0.0 | 0.00 | 0.00 | 0.00 | 99 | 1015.9 |
| 20260906104930 | 58 | 253 | 0.0 | 0.0 | 0.00 | 0.00 | 0.00 | 99 | 1016.1 |
| 20260906104428 | 58 | 230 | 0.0 | 0.0 | 0.00 | 0.00 | 0.00 | 99 | 1016.1 |
| 20260906103927 | 58 | 342 | 0.0 | 0.0 | 0.00 | 0.00 | 0.00 | 99 | 1015.7 |
| 20260906103426 | 58 | 64 | 0.0 | 0.0 | 0.00 | 0.00 | 0.00 | 99 | 1016.0 |
| 20260906102921 | 58 | 327 | 0.0 | 0.0 | 0.00 | 0.00 | 0.00 | 99 | 1016.0 |
| 20260906102421 | 58 | 290 | 0.0 | 0.0 | 0.00 | 0.00 | 0.00 | 99 | 1015.8 |
| 20260906101916 | 58 | 275 | 0.0 | 0.0 | 0.00 | 0.00 | 0.00 | 99 | 1016.0 |
| 20260906101411 | 58 | 278 | 0.0 | 0.0 | 0.00 | 0.00 | 0.00 | 99 | 1015.9 |
| 20260906100907 | 58 | 282 | 0.0 | 0.0 | 0.00 | 0.00 | 0.00 | 99 | 1015.9 |
| 20260906100406 | 58 | 297 | 0.0 | 0.0 | 0.00 | 0.00 | 0.00 | 99 | 1015.7 |
| 20260906095900 | 58 | 274 | 0.0 | 0.0 | 0.00 | 0.00 | 0.00 | 99 | 1015.7 |
| 20260906095356 | 58 | 269 | 0.0 | 0.0 | 0.00 | 0.00 | 0.00 | 99 | 1015.7 |
| 20260906094850 | 58 | 271 | 0.0 | 0.0 | 0.00 | 0.00 | 0.00 | 99 | 1015.6 |
| 20260906094345 | 58 | 311 | 0.0 | 0.0 | 0.00 | 0.00 | 0.00 | 99 | 1015.4 |
| 20260906093841 | 57 | 282 | 0.0 | 0.0 | 0.00 | 0.00 | 0.00 | 99 | 1015.2 |
| 20260906093337 | 57 | 250 | 0.0 | 0.0 | 0.00 | 0.00 | 0.00 | 99 | 1015.5 |
| 20260906092831 | 57 | 224 | 0.0 | 0.0 | 0.00 | 0.00 | 0.00 | 99 | 1015.4 |
| 20260906092331 | 57 | 245 | 0.0 | 0.0 | 0.00 | 0.00 | 0.00 | 99 | 1015.0 |
| 20260906091827 | 57 | 267 | 0.0 | 0.0 | 0.00 | 0.00 | 0.00 | 99 | 1015.1 |
| 20260906091323 | 57 | 260 | 0.0 | 0.0 | 0.00 | 0.00 | 0.00 | 99 | 1015.1 |
| 20260906090820 | 57 | 244 | 0.0 | 0.0 | 0.00 | 0.00 | 0.00 | 99 | 1014.9 |
| 20260906090319 | 57 | 268 | 0.0 | 0.0 | 0.00 | 0.00 | 0.00 | 99 | 1015.0 |
| 20260906085818 | 57 | 265 | 0.0 | 0.0 | 0.00 | 0.00 | 0.00 | 99 | 1015.0 |
| 20260906085311 | 57 | 276 | 0.0 | 0.0 | 0.00 | 0.00 | 0.00 | 99 | 1014.9 |
| 20260906084807 | 57 | 272 | 0.0 | 0.0 | 0.00 | 0.00 | 0.00 | 99 | 1014.9 |
| 20260906084306 | 57 | 266 | 0.0 | 0.0 | 0.00 | 0.00 | 0.00 | 99 | 1015.1 |
| 20260906083801 | 57 | 266 | 0.0 | 0.0 | 0.00 | 0.00 | 0.00 | 99 | 1014.7 |
| 20260906083257 | 57 | 271 | 0.0 | 0.0 | 0.00 | 0.00 | 0.00 | 99 | 1014.8 |
| 20260906082751 | 57 | 289 | 0.0 | 0.0 | 0.00 | 0.00 | 0.00 | 99 | 1014.6 |
| 20260906082246 | 57 | 7 | 0.0 | 0.0 | 0.00 | 0.00 | 0.00 | 99 | 1014.8 |
| 20260906081742 | 57 | 270 | 0.0 | 0.0 | 0.00 | 0.00 | 0.00 | 99 | 1014.4 |
| 20260906081238 | 57 | 273 | 0.0 | 0.0 | 0.00 | 0.00 | 0.00 | 99 | 1014.4 |
| 20260906080734 | 57 | 271 | 0.0 | 0.0 | 0.00 | 0.00 | 0.00 | 99 | 1014.6 |
| 20260906080230 | 57 | 265 | 0.0 | 0.0 | 0.00 | 0.00 | 0.00 | 99 | 1014.4 |
| 20260906075724 | 56 | 268 | 0.0 | 0.0 | 0.00 | 0.00 | 0.00 | 99 | 1014.5 |
| 20260906075224 | 56 | 271 | 0.0 | 0.0 | 0.00 | 0.00 | 0.00 | 99 | 1014.6 |
| 20260906074719 | 56 | 271 | 0.0 | 0.0 | 0.00 | 0.00 | 0.00 | 99 | 1014.8 |
| 20260906074218 | 56 | 277 | 0.0 | 0.0 | 0.00 | 0.00 | 0.00 | 99 | 1014.8 |
| 20260906073713 | 56 | 278 | 0.0 | 0.0 | 0.00 | 0.00 | 0.00 | 99 | 1014.7 |
| 20260906073208 | 56 | 274 | 0.0 | 0.0 | 0.00 | 0.00 | 0.00 | 99 | 1014.8 |
| 20260906072704 | 56 | 268 | 0.0 | 0.0 | 0.00 | 0.00 | 0.00 | 99 | 1014.7 |
| 20260906072159 | 56 | 268 | 0.0 | 0.0 | 0.00 | 0.00 | 0.00 | 99 | 1014.7 |
| 20260906071655 | 56 | 268 | 0.0 | 0.0 | 0.00 | 0.00 | 0.00 | 99 | 1014.7 |
| 20260906071154 | 56 | 276 | 0.0 | 0.0 | 0.00 | 0.00 | 0.00 | 99 | 1014.6 |
| 20260906070652 | 56 | 252 | 0.0 | 0.0 | 0.00 | 0.00 | 0.00 | 99 | 1014.6 |
| 20260906070147 | 56 | 256 | 0.0 | 0.0 | 0.00 | 0.00 | 0.00 | 99 | 1014.6 |
| 20260906065646 | 56 | 262 | 0.0 | 0.0 | 0.00 | 0.00 | 0.00 | 99 | 1014.6 |
| 20260906065142 | 56 | 252 | 0.0 | 0.0 | 0.00 | 0.00 | 0.00 | 99 | 1014.6 |
| 20260906064638 | 56 | 260 | 0.0 | 0.0 | 0.00 | 0.00 | 0.00 | 99 | 1014.7 |
| 20260906064133 | 56 | 268 | 0.0 | 0.0 | 0.00 | 0.00 | 0.00 | 99 | 1014.7 |
| 20260906063628 | 56 | 276 | 0.0 | 0.0 | 0.00 | 0.00 | 0.00 | 98 | 1014.9 |
| 20260906063124 | 56 | 277 | 0.0 | 0.0 | 0.00 | 0.00 | 0.00 | 98 | 1014.7 |
| 20260906062619 | 56 | 272 | 0.0 | 0.0 | 0.00 | 0.00 | 0.00 | 98 | 1014.7 |
| 20260906062118 | 56 | 272 | 0.0 | 0.0 | 0.00 | 0.00 | 0.00 | 98 | 1014.8 |
| 20260906061614 | 56 | 243 | 0.0 | 0.0 | 0.00 | 0.00 | 0.00 | 98 | 1014.8 |
| 20260906061114 | 56 | 257 | 0.0 | 0.0 | 0.00 | 0.00 | 0.00 | 98 | 1014.8 |
| 20260906060611 | 56 | 272 | 0.0 | 0.0 | 0.00 | 0.00 | 0.00 | 98 | 1014.8 |
| 20260906060108 | 57 | 270 | 0.0 | 0.0 | 0.00 | 0.00 | 0.00 | 98 | 1014.7 |
| 20260906055603 | 56 | 255 | 0.0 | 0.0 | 0.00 | 0.00 | 0.00 | 98 | 1014.9 |
| 20260906055058 | 57 | 270 | 0.0 | 0.0 | 0.00 | 0.00 | 0.00 | 98 | 1014.6 |
| 20260906054558 | 57 | 268 | 0.0 | 0.0 | 0.00 | 0.00 | 0.00 | 98 | 1014.9 |
| 20260906054054 | 57 | 260 | 0.0 | 0.0 | 0.00 | 0.00 | 0.00 | 98 | 1015.0 |
| 20260906053550 | 57 | 228 | 0.0 | 0.0 | 0.00 | 0.00 | 0.00 | 98 | 1014.8 |
| 20260906053045 | 57 | 253 | 0.0 | 0.0 | 0.00 | 0.00 | 0.00 | 98 | 1015.0 |
| 20260906052541 | 57 | 277 | 0.0 | 0.0 | 0.00 | 0.00 | 0.00 | 98 | 1014.9 |
| 20260906052038 | 57 | 264 | 0.0 | 0.0 | 0.00 | 0.00 | 0.00 | 98 | 1014.9 |
| 20260906051533 | 57 | 251 | 0.0 | 0.0 | 0.00 | 0.00 | 0.00 | 98 | 1014.8 |
| 20260906051028 | 57 | 252 | 0.0 | 0.0 | 0.00 | 0.00 | 0.00 | 98 | 1015.0 |
| 20260906050523 | 57 | 266 | 0.0 | 0.0 | 0.00 | 0.00 | 0.00 | 98 | 1014.9 |
| 20260906050018 | 57 | 269 | 0.0 | 0.0 | 0.00 | 0.00 | 0.00 | 98 | 1014.8 |
| 20260906045516 | 57 | 247 | 0.0 | 0.0 | 0.00 | 0.00 | 0.00 | 98 | 1014.8 |
| 20260906045012 | 58 | 264 | 0.0 | 0.0 | 0.00 | 0.00 | 0.00 | 98 | 1014.7 |
| 20260906044508 | 58 | 251 | 0.0 | 0.0 | 0.00 | 0.00 | 0.00 | 98 | 1014.7 |
| 20260906044003 | 58 | 268 | 0.0 | 0.0 | 0.00 | 0.00 | 0.00 | 98 | 1014.8 |
| 20260906043459 | 58 | 265 | 0.0 | 0.0 | 0.00 | 0.00 | 0.00 | 98 | 1014.8 |
| 20260906042954 | 58 | 263 | 0.0 | 0.0 | 0.00 | 0.00 | 0.00 | 98 | 1014.8 |
| 20260906042453 | 58 | 252 | 0.0 | 0.0 | 0.00 | 0.00 | 0.00 | 98 | 1014.9 |
| 20260906041953 | 58 | 275 | 0.0 | 0.0 | 0.00 | 0.00 | 0.00 | 98 | 1015.0 |
| 20260906041450 | 58 | 266 | 0.0 | 0.0 | 0.00 | 0.00 | 0.00 | 98 | 1014.7 |
| 20260906040949 | 58 | 266 | 0.0 | 0.0 | 0.00 | 0.00 | 0.00 | 97 | 1014.9 |
| 20260906040444 | 59 | 266 | 0.0 | 0.0 | 0.00 | 0.00 | 0.00 | 97 | 1014.7 |
| 20260906035939 | 59 | 264 | 0.0 | 0.0 | 0.00 | 0.00 | 0.00 | 97 | 1014.8 |
| 20260906035435 | 59 | 260 | 0.0 | 0.0 | 0.00 | 0.00 | 0.00 | 97 | 1014.8 |
| 20260906034930 | 59 | 260 | 0.0 | 0.0 | 0.00 | 0.00 | 0.00 | 97 | 1014.8 |
| 20260906034425 | 59 | 258 | 0.0 | 0.0 | 0.00 | 0.00 | 0.00 | 97 | 1014.6 |
| 20260906033920 | 59 | 258 | 0.0 | 0.0 | 0.00 | 0.00 | 0.00 | 97 | 1014.6 |
| 20260906033415 | 59 | 275 | 0.0 | 0.0 | 0.00 | 0.00 | 0.00 | 97 | 1014.6 |
| 20260906032911 | 59 | 235 | 0.0 | 0.0 | 0.00 | 0.00 | 0.00 | 97 | 1014.6 |
| 20260906032407 | 60 | 243 | 0.0 | 0.0 | 0.00 | 0.00 | 0.00 | 97 | 1014.6 |
| 20260906031901 | 60 | 252 | 0.0 | 0.0 | 0.00 | 0.00 | 0.00 | 97 | 1014.6 |
| 20260906031356 | 59 | 268 | 0.0 | 0.0 | 0.00 | 0.00 | 0.00 | 97 | 1014.5 |
| 20260906030851 | 60 | 283 | 0.0 | 0.0 | 0.00 | 0.00 | 0.00 | 97 | 1014.6 |
| 20260906030346 | 60 | 280 | 0.0 | 0.0 | 0.00 | 0.00 | 0.00 | 96 | 1014.6 |
| 20260906025841 | 60 | 280 | 0.0 | 0.0 | 0.00 | 0.00 | 0.00 | 96 | 1014.4 |
| 20260906025335 | 60 | 278 | 0.0 | 0.0 | 0.00 | 0.00 | 0.00 | 96 | 1014.4 |
| 20260906024834 | 60 | 257 | 0.0 | 0.0 | 0.00 | 0.00 | 0.00 | 96 | 1014.5 |
| 20260906024333 | 60 | 282 | 0.0 | 0.0 | 0.00 | 0.00 | 0.00 | 96 | 1014.5 |
| 20260906023829 | 61 | 277 | 0.0 | 0.0 | 0.00 | 0.00 | 0.00 | 96 | 1014.4 |
| 20260906023325 | 61 | 269 | 0.0 | 0.0 | 0.00 | 0.00 | 0.00 | 96 | 1014.5 |
| 20260906022820 | 61 | 273 | 0.0 | 0.0 | 0.00 | 0.00 | 0.00 | 96 | 1014.6 |
| 20260906022315 | 61 | 255 | 0.0 | 0.0 | 0.00 | 0.00 | 0.00 | 96 | 1014.3 |
| 20260906021811 | 61 | 265 | 0.0 | 0.0 | 0.00 | 0.00 | 0.00 | 96 | 1014.3 |
| 20260906021310 | 61 | 266 | 0.0 | 0.0 | 0.00 | 0.00 | 0.00 | 96 | 1014.3 |
| 20260906020804 | 61 | 251 | 0.0 | 0.0 | 0.00 | 0.00 | 0.00 | 96 | 1014.4 |
| 20260906020304 | 61 | 251 | 0.0 | 1.0 | 0.00 | 0.00 | 0.00 | 95 | 1014.3 |
| 20260906015759 | 61 | 231 | 0.0 | 1.0 | 0.00 | 0.00 | 0.00 | 95 | 1014.2 |
| 20260906015257 | 61 | 260 | 0.0 | 0.0 | 0.00 | 0.00 | 0.00 | 95 | 1014.5 |
| 20260906014752 | 61 | 264 | 0.0 | 0.0 | 0.00 | 0.00 | 0.00 | 94 | 1014.2 |
| 20260906014248 | 62 | 265 | 0.0 | 0.0 | 0.00 | 0.00 | 0.00 | 94 | 1014.3 |
| 20260906013744 | 62 | 260 | 0.0 | 0.0 | 0.00 | 0.00 | 0.00 | 94 | 1014.0 |
| 20260906013243 | 62 | 275 | 0.0 | 0.0 | 0.00 | 0.00 | 0.00 | 94 | 1014.0 |
| 20260906012739 | 62 | 308 | 0.0 | 0.0 | 0.00 | 0.00 | 0.00 | 93 | 1014.1 |
| 20260906012234 | 62 | 266 | 0.0 | 1.0 | 0.00 | 0.00 | 0.00 | 92 | 1014.0 |
| 20260906011729 | 63 | 244 | 0.0 | 0.0 | 0.00 | 0.00 | 0.00 | 91 | 1014.1 |
| 20260906011228 | 63 | 268 | 0.0 | 0.0 | 0.00 | 0.00 | 0.00 | 90 | 1014.1 |
| 20260906010724 | 63 | 20 | 1.0 | 1.0 | 0.00 | 0.00 | 0.00 | 91 | 1014.0 |
| 20260906010221 | 63 | 354 | 1.0 | 1.0 | 0.00 | 0.00 | 0.00 | 91 | 1014.0 |
| 20260906005720 | 63 | 27 | 1.0 | 1.0 | 0.00 | 0.00 | 0.00 | 91 | 1013.8 |
| 20260906005214 | 64 | 222 | 1.0 | 1.0 | 0.00 | 0.00 | 0.00 | 91 | 1013.8 |
| 20260906004713 | 64 | 124 | 2.0 | 2.0 | 0.00 | 0.00 | 0.00 | 90 | 1013.6 |
| 20260906004208 | 64 | 107 | 2.0 | 2.0 | 0.00 | 0.00 | 0.00 | 88 | 1013.7 |
| 20260906003658 | 65 | 297 | 0.0 | 0.0 | 0.00 | 0.00 | 0.00 | 87 | 1013.9 |
| 20260906003154 | 65 | 277 | 0.0 | 0.0 | 0.00 | 0.00 | 0.00 | 87 | 1013.5 |
| 20260906002654 | 66 | 164 | 1.0 | 1.0 | 0.00 | 0.00 | 0.00 | 85 | 1013.6 |
| 20260906002148 | 66 | 67 | 1.0 | 1.0 | 0.00 | 0.00 | 0.00 | 83 | 1013.5 |
| 20260906001644 | 66 | 355 | 1.0 | 1.0 | 0.00 | 0.00 | 0.00 | 82 | 1013.6 |
| 20260906001143 | 66 | 282 | 0.0 | 1.0 | 0.00 | 0.00 | 0.00 | 82 | 1013.6 |
| 20260906000639 | 66 | 356 | 1.0 | 2.0 | 0.00 | 0.00 | 0.00 | 83 | 1013.5 |
| 20260906000135 | 66 | 71 | 1.0 | 2.0 | 0.00 | 0.00 | 0.00 | 84 | 1013.6 |
| 20260905235633 | 67 | 55 | 1.0 | 1.0 | 0.00 | 0.00 | 0.00 | 82 | 1013.4 |
| 20260905235129 | 68 | 284 | 0.0 | 0.0 | 0.00 | 0.00 | 0.00 | 80 | 1013.4 |
| 20260905234624 | 68 | 250 | 0.0 | 0.0 | 0.00 | 0.00 | 0.00 | 78 | 1013.6 |
| 20260905234119 | 68 | 265 | 0.0 | 0.0 | 0.00 | 0.00 | 0.00 | 77 | 1013.4 |
| 20260905233614 | 68 | 301 | 1.0 | 1.0 | 0.00 | 0.00 | 0.00 | 77 | 1013.4 |
| 20260905233108 | 68 | 354 | 1.0 | 1.0 | 0.00 | 0.00 | 0.00 | 77 | 1013.5 |
| 20260905232604 | 68 | 292 | 0.0 | 1.0 | 0.00 | 0.00 | 0.00 | 77 | 1013.6 |
| 20260905232059 | 68 | 4 | 1.0 | 2.0 | 0.00 | 0.00 | 0.00 | 77 | 1013.3 |
| 20260905231554 | 69 | 3 | 3.0 | 3.0 | 0.00 | 0.00 | 0.00 | 76 | 1013.5 |
| 20260905231051 | 69 | 299 | 2.0 | 2.0 | 0.00 | 0.00 | 0.00 | 76 | 1013.3 |
| 20260905230551 | 70 | 292 | 0.0 | 1.0 | 0.00 | 0.00 | 0.00 | 74 | 1013.3 |
| 20260905230049 | 70 | 304 | 1.0 | 2.0 | 0.00 | 0.00 | 0.00 | 73 | 1013.4 |
| 20260905225549 | 70 | 265 | 1.0 | 1.0 | 0.00 | 0.00 | 0.00 | 72 | 1013.5 |
| 20260905225043 | 70 | 266 | 1.0 | 1.0 | 0.00 | 0.00 | 0.00 | 73 | 1013.3 |
| 20260905224538 | 70 | 318 | 2.0 | 2.0 | 0.00 | 0.00 | 0.00 | 72 | 1013.5 |
| 20260905224037 | 70 | 5 | 3.0 | 3.0 | 0.00 | 0.00 | 0.00 | 72 | 1013.5 |
| 20260905223535 | 70 | 334 | 1.0 | 1.0 | 0.00 | 0.00 | 0.00 | 72 | 1013.5 |
| 20260905223031 | 70 | 242 | 2.0 | 2.0 | 0.00 | 0.00 | 0.00 | 71 | 1013.5 |
| 20260905222531 | 70 | 298 | 3.0 | 3.0 | 0.00 | 0.00 | 0.00 | 72 | 1013.3 |
| 20260905222026 | 70 | 330 | 3.0 | 7.0 | 0.00 | 0.00 | 0.00 | 71 | 1013.5 |
| 20260905221522 | 71 | 314 | 2.0 | 2.0 | 0.00 | 0.00 | 0.00 | 71 | 1013.3 |
| 20260905221018 | 71 | 285 | 3.0 | 3.0 | 0.00 | 0.00 | 0.00 | 70 | 1013.3 |
| 20260905220514 | 71 | 302 | 2.0 | 3.0 | 0.00 | 0.00 | 0.00 | 71 | 1013.1 |
| 20260905220009 | 71 | 330 | 2.0 | 2.0 | 0.00 | 0.00 | 0.00 | 71 | 1013.1 |
| 20260905215504 | 72 | 351 | 3.0 | 3.0 | 0.00 | 0.00 | 0.00 | 70 | 1012.9 |
| 20260905214959 | 72 | 359 | 3.0 | 3.0 | 0.00 | 0.00 | 0.00 | 70 | 1012.9 |
| 20260905214450 | 72 | 324 | 1.0 | 1.0 | 0.00 | 0.00 | 0.00 | 72 | 1012.4 |
| 20260905213950 | 72 | 306 | 1.0 | 1.0 | 0.00 | 0.00 | 0.00 | 72 | 1012.8 |
| 20260905213446 | 72 | 274 | 3.0 | 3.0 | 0.00 | 0.00 | 0.00 | 69 | 1012.6 |
| 20260905212941 | 72 | 283 | 1.0 | 1.0 | 0.00 | 0.00 | 0.00 | 71 | 1012.6 |
| 20260905212436 | 72 | 340 | 3.0 | 3.0 | 0.00 | 0.00 | 0.00 | 70 | 1012.9 |
| 20260905211935 | 72 | 284 | 4.0 | 6.0 | 0.00 | 0.00 | 0.00 | 68 | 1012.2 |
| 20260905211431 | 72 | 10 | 2.0 | 3.0 | 0.00 | 0.00 | 0.00 | 67 | 1012.5 |
| 20260905210927 | 73 | 338 | 4.0 | 5.0 | 0.00 | 0.00 | 0.00 | 67 | 1012.4 |
| 20260905210427 | 73 | 350 | 5.0 | 8.0 | 0.00 | 0.00 | 0.00 | 67 | 1012.5 |
| 20260905205926 | 74 | 298 | 5.0 | 8.0 | 0.00 | 0.00 | 0.00 | 66 | 1012.5 |
| 20260905205421 | 73 | 300 | 4.0 | 5.0 | 0.00 | 0.00 | 0.00 | 66 | 1012.3 |
| 20260905204920 | 73 | 281 | 2.0 | 2.0 | 0.00 | 0.00 | 0.00 | 66 | 1012.4 |
| 20260905204417 | 73 | 326 | 3.0 | 3.0 | 0.00 | 0.00 | 0.00 | 65 | 1012.4 |
| 20260905203915 | 73 | 327 | 3.0 | 5.0 | 0.00 | 0.00 | 0.00 | 64 | 1012.4 |
| 20260905203411 | 73 | 347 | 3.0 | 3.0 | 0.00 | 0.00 | 0.00 | 64 | 1012.4 |
| 20260905202906 | 73 | 354 | 2.0 | 2.0 | 0.00 | 0.00 | 0.00 | 65 | 1012.3 |
| 20260905202401 | 73 | 3 | 4.0 | 5.0 | 0.00 | 0.00 | 0.00 | 63 | 1012.4 |
| 20260905201856 | 73 | 302 | 5.0 | 7.0 | 0.00 | 0.00 | 0.00 | 64 | 1012.4 |
| 20260905201352 | 73 | 275 | 3.0 | 3.0 | 0.00 | 0.00 | 0.00 | 64 | 1012.4 |
| 20260905200851 | 73 | 317 | 5.0 | 8.0 | 0.00 | 0.00 | 0.00 | 64 | 1012.4 |
| 20260905200348 | 74 | 352 | 3.0 | 3.0 | 0.00 | 0.00 | 0.00 | 64 | 1012.5 |
| 20260905195846 | 74 | 9 | 2.0 | 2.0 | 0.00 | 0.00 | 0.00 | 66 | 1012.6 |
| 20260905195341 | 74 | 7 | 4.0 | 5.0 | 0.00 | 0.00 | 0.00 | 64 | 1012.3 |
| 20260905194837 | 73 | 268 | 1.0 | 1.0 | 0.00 | 0.00 | 0.00 | 64 | 1012.3 |
| 20260905194336 | 73 | 348 | 5.0 | 6.0 | 0.00 | 0.00 | 0.00 | 63 | 1012.2 |
| 20260905193836 | 74 | 37 | 3.0 | 5.0 | 0.00 | 0.00 | 0.00 | 64 | 1012.4 |
| 20260905193330 | 74 | 6 | 2.0 | 2.0 | 0.00 | 0.00 | 0.00 | 61 | 1012.4 |
| 20260905192827 | 74 | 271 | 1.0 | 1.0 | 0.00 | 0.00 | 0.00 | 61 | 1012.4 |
| 20260905192322 | 74 | 277 | 0.0 | 1.0 | 0.00 | 0.00 | 0.00 | 64 | 1012.4 |
| 20260905191821 | 73 | 314 | 2.0 | 2.0 | 0.00 | 0.00 | 0.00 | 63 | 1012.4 |
| 20260905191320 | 73 | 282 | 0.0 | 1.0 | 0.00 | 0.00 | 0.00 | 63 | 1012.5 |
| 20260905190819 | 73 | 308 | 2.0 | 2.0 | 0.00 | 0.00 | 0.00 | 63 | 1012.6 |
| 20260905190313 | 73 | 331 | 2.0 | 2.0 | 0.00 | 0.00 | 0.00 | 63 | 1012.8 |
| 20260905185811 | 72 | 330 | 2.0 | 2.0 | 0.00 | 0.00 | 0.00 | 66 | 1012.6 |
| 20260905185305 | 72 | 273 | 2.0 | 2.0 | 0.00 | 0.00 | 0.00 | 65 | 1012.4 |
| 20260905184800 | 72 | 326 | 4.0 | 5.0 | 0.00 | 0.00 | 0.00 | 65 | 1012.5 |
| 20260905184254 | 73 | 338 | 3.0 | 3.0 | 0.00 | 0.00 | 0.00 | 63 | 1012.5 |
| 20260905183753 | 74 | 255 | 3.0 | 5.0 | 0.00 | 0.00 | 0.00 | 61 | 1012.3 |
| 20260905183248 | 73 | 292 | 1.0 | 1.0 | 0.00 | 0.00 | 0.00 | 60 | 1012.5 |
| 20260905182747 | 73 | 256 | 2.0 | 2.0 | 0.00 | 0.00 | 0.00 | 61 | 1012.6 |
| 20260905182242 | 73 | 259 | 3.0 | 3.0 | 0.00 | 0.00 | 0.00 | 62 | 1012.8 |
| 20260905181737 | 73 | 339 | 7.0 | 9.0 | 0.00 | 0.00 | 0.00 | 62 | 1012.6 |
| 20260905181236 | 72 | 312 | 2.0 | 3.0 | 0.00 | 0.00 | 0.00 | 61 | 1012.8 |
| 20260905180731 | 72 | 332 | 4.0 | 6.0 | 0.00 | 0.00 | 0.00 | 63 | 1012.5 |
| 20260905180226 | 72 | 358 | 7.0 | 9.0 | 0.00 | 0.00 | 0.00 | 64 | 1012.8 |
| 20260905175721 | 72 | 287 | 2.0 | 2.0 | 0.00 | 0.00 | 0.00 | 66 | 1012.6 |
| 20260905175215 | 73 | 353 | 3.0 | 3.0 | 0.00 | 0.00 | 0.00 | 63 | 1012.6 |
| 20260905174710 | 73 | 24 | 1.0 | 1.0 | 0.00 | 0.00 | 0.00 | 64 | 1012.5 |
| 20260905174206 | 73 | 30 | 3.0 | 3.0 | 0.00 | 0.00 | 0.00 | 64 | 1012.6 |
| 20260905173703 | 74 | 342 | 2.0 | 2.0 | 0.00 | 0.00 | 0.00 | 61 | 1012.5 |
| 20260905173158 | 73 | 278 | 0.0 | 1.0 | 0.00 | 0.00 | 0.00 | 64 | 1012.8 |
| 20260905172657 | 72 | 66 | 3.0 | 3.0 | 0.00 | 0.00 | 0.00 | 64 | 1012.5 |
| 20260905172151 | 72 | 64 | 3.0 | 5.0 | 0.00 | 0.00 | 0.00 | 64 | 1012.4 |
| 20260905171647 | 72 | 76 | 4.0 | 5.0 | 0.00 | 0.00 | 0.00 | 63 | 1012.8 |
| 20260905171142 | 72 | 38 | 4.0 | 5.0 | 0.00 | 0.00 | 0.00 | 64 | 1013.0 |
| 20260905170640 | 72 | 325 | 3.0 | 3.0 | 0.00 | 0.00 | 0.00 | 63 | 1012.9 |
| 20260905170134 | 71 | 68 | 3.0 | 3.0 | 0.00 | 0.00 | 0.00 | 66 | 1013.0 |
| 20260905165628 | 71 | 12 | 3.0 | 3.0 | 0.00 | 0.00 | 0.00 | 66 | 1013.0 |
| 20260905165119 | 71 | 341 | 2.0 | 2.0 | 0.00 | 0.00 | 0.00 | 69 | 1013.1 |
| 20260905164614 | 71 | 0 | 5.0 | 7.0 | 0.00 | 0.00 | 0.00 | 67 | 1013.0 |
| 20260905164113 | 71 | 27 | 4.0 | 5.0 | 0.00 | 0.00 | 0.00 | 65 | 1012.6 |
| 20260905163609 | 72 | 32 | 1.0 | 2.0 | 0.00 | 0.00 | 0.00 | 66 | 1012.9 |
| 20260905163106 | 71 | 35 | 3.0 | 5.0 | 0.00 | 0.00 | 0.00 | 66 | 1012.6 |
| 20260905162602 | 71 | 334 | 5.0 | 7.0 | 0.00 | 0.00 | 0.00 | 66 | 1013.0 |
| 20260905162100 | 71 | 281 | 5.0 | 6.0 | 0.00 | 0.00 | 0.00 | 67 | 1013.2 |
| 20260905161555 | 71 | 275 | 2.0 | 3.0 | 0.00 | 0.00 | 0.00 | 67 | 1012.9 |
| 20260905161053 | 71 | 255 | 1.0 | 3.0 | 0.00 | 0.00 | 0.00 | 68 | 1013.0 |
| 20260905160552 | 71 | 327 | 5.0 | 6.0 | 0.00 | 0.00 | 0.00 | 67 | 1013.2 |
| 20260905160051 | 70 | 322 | 5.0 | 6.0 | 0.00 | 0.00 | 0.00 | 68 | 1013.1 |
| 20260905155545 | 71 | 0 | 5.0 | 6.0 | 0.00 | 0.00 | 0.00 | 67 | 1013.3 |
| 20260905155044 | 71 | 359 | 8.0 | 10.0 | 0.00 | 0.00 | 0.00 | 67 | 1013.1 |
| 20260905154539 | 71 | 345 | 2.0 | 3.0 | 0.00 | 0.00 | 0.00 | 67 | 1013.3 |
| 20260905154035 | 70 | 358 | 4.0 | 5.0 | 0.00 | 0.00 | 0.00 | 68 | 1013.3 |
| 20260905153531 | 71 | 15 | 7.0 | 8.0 | 0.00 | 0.00 | 0.00 | 67 | 1013.0 |
| 20260905153030 | 71 | 31 | 4.0 | 5.0 | 0.00 | 0.00 | 0.00 | 67 | 1013.2 |
| 20260905152525 | 70 | 39 | 3.0 | 3.0 | 0.00 | 0.00 | 0.00 | 70 | 1013.5 |
| 20260905152021 | 70 | 298 | 2.0 | 2.0 | 0.00 | 0.00 | 0.00 | 70 | 1013.2 |
| 20260905151515 | 70 | 303 | 5.0 | 6.0 | 0.00 | 0.00 | 0.00 | 71 | 1013.4 |
| 20260905151010 | 70 | 350 | 5.0 | 6.0 | 0.00 | 0.00 | 0.00 | 69 | 1013.6 |
| 20260905150500 | 70 | 317 | 8.0 | 13.0 | 0.00 | 0.00 | 0.00 | 71 | 1013.6 |
| 20260905145957 | 69 | 0 | 3.0 | 5.0 | 0.00 | 0.00 | 0.00 | 73 | 1013.5 |
| 20260905145452 | 69 | 355 | 4.0 | 7.0 | 0.00 | 0.00 | 0.00 | 72 | 1013.5 |
| 20260905144951 | 69 | 343 | 7.0 | 7.0 | 0.00 | 0.00 | 0.00 | 74 | 1013.3 |
| 20260905144446 | 69 | 2 | 3.0 | 3.0 | 0.00 | 0.00 | 0.00 | 74 | 1013.5 |
| 20260905143945 | 68 | 1 | 2.0 | 2.0 | 0.00 | 0.00 | 0.00 | 77 | 1013.3 |
| 20260905143444 | 68 | 355 | 3.0 | 5.0 | 0.00 | 0.00 | 0.00 | 76 | 1013.6 |
| 20260905142939 | 67 | 20 | 3.0 | 3.0 | 0.00 | 0.00 | 0.00 | 78 | 1013.3 |
| 20260905142438 | 67 | 276 | 1.0 | 1.0 | 0.00 | 0.00 | 0.00 | 81 | 1013.5 |
| 20260905141934 | 68 | 330 | 3.0 | 3.0 | 0.00 | 0.00 | 0.00 | 78 | 1013.5 |
| 20260905141428 | 68 | 249 | 3.0 | 5.0 | 0.00 | 0.00 | 0.00 | 78 | 1013.5 |
| 20260905140925 | 68 | 14 | 0.0 | 1.0 | 0.00 | 0.00 | 0.00 | 79 | 1013.5 |
| 20260905140420 | 67 | 186 | 2.0 | 2.0 | 0.00 | 0.00 | 0.00 | 83 | 1013.5 |
| 20260905135918 | 65 | 275 | 2.0 | 3.0 | 0.00 | 0.00 | 0.00 | 86 | 1013.5 |
| 20260905135414 | 65 | 228 | 3.0 | 3.0 | 0.00 | 0.00 | 0.00 | 89 | 1013.6 |
| 20260905134909 | 65 | 212 | 5.0 | 6.0 | 0.00 | 0.00 | 0.00 | 89 | 1013.6 |
| 20260905134409 | 65 | 211 | 6.0 | 7.0 | 0.00 | 0.00 | 0.00 | 90 | 1013.5 |
| 20260905133903 | 65 | 237 | 3.0 | 3.0 | 0.00 | 0.00 | 0.00 | 91 | 1013.5 |
| 20260905133358 | 64 | 261 | 1.0 | 1.0 | 0.00 | 0.00 | 0.00 | 92 | 1013.5 |
| 20260905132857 | 64 | 177 | 2.0 | 2.0 | 0.00 | 0.00 | 0.00 | 93 | 1013.6 |
| 20260905132353 | 65 | 182 | 2.0 | 2.0 | 0.00 | 0.00 | 0.00 | 96 | 1013.4 |
| 20260905131852 | 64 | 186 | 2.0 | 2.0 | 0.00 | 0.00 | 0.00 | 99 | 1013.0 |
| 20260905131348 | 64 | 4 | 0.0 | 0.0 | 0.00 | 0.00 | 0.00 | 99 | 1013.4 |
| 20260905130843 | 63 | 89 | 1.0 | 2.0 | 0.00 | 0.00 | 0.00 | 99 | 1013.7 |
| 20260905130342 | 62 | 284 | 1.0 | 1.0 | 0.00 | 0.00 | 0.00 | 99 | 1013.6 |
| 20260905125837 | 62 | 229 | 1.0 | 1.0 | 0.00 | 0.00 | 0.00 | 99 | 1013.6 |
| 20260905125332 | 61 | 253 | 0.0 | 0.0 | 0.00 | 0.00 | 0.00 | 99 | 1013.9 |
| 20260905124828 | 61 | 225 | 1.0 | 2.0 | 0.00 | 0.00 | 0.00 | 99 | 1013.9 |
| 20260905124325 | 61 | 235 | 2.0 | 2.0 | 0.00 | 0.00 | 0.00 | 99 | 1013.8 |
| 20260905123824 | 60 | 223 | 2.0 | 3.0 | 0.00 | 0.00 | 0.00 | 99 | 1013.6 |
| 20260905123322 | 60 | 231 | 3.0 | 3.0 | 0.00 | 0.00 | 0.00 | 99 | 1014.0 |
| 20260905122821 | 59 | 216 | 2.0 | 2.0 | 0.00 | 0.00 | 0.00 | 99 | 1013.9 |
| 20260905122320 | 59 | 233 | 0.0 | 1.0 | 0.00 | 0.00 | 0.00 | 99 | 1013.8 |
| 20260905121816 | 59 | 246 | 1.0 | 1.0 | 0.00 | 0.00 | 0.00 | 99 | 1013.8 |
| 20260905121313 | 58 | 252 | 0.0 | 0.0 | 0.00 | 0.00 | 0.00 | 99 | 1013.5 |
| 20260905120811 | 58 | 248 | 1.0 | 1.0 | 0.00 | 0.00 | 0.00 | 99 | 1013.7 |